Regional Weather Roundup
Issued by NWS Wakefield, VA

Home | Current Version | Previous Version | Text Only | Print | Product List | Glossary Off
Versions: 1 2 3 4 5 6 7 8 9 10 11 12 13 14 15 16 17 18 19 20 21 22 23 24 25 26 27

000
ASUS41 KAKQ 301315
RWRAKQ

REGIONAL WEATHER ROUNDUP
NATIONAL WEATHER SERVICE WAKEFIELD VA
900 AM EDT SAT JUL 30 2016

Note: "fair" indicates few or no clouds below 12,000 feet with no
significant weather and/or obstructions to visibility. * = Denotes
station may not report precipitation (e.g., rain,snow,etc.),
thunder or fog.

VAZ042-051-052>054-056-301400-
NORTHERN VIRGINIA

CITY           SKY/WX    TMP DP  RH WIND       PRES   REMARKS
WASH NATIONAL  PTSUNNY   81  74  79 S8        29.98S
DULLES         PTSUNNY   79  72  79 S6        29.98S
FORT BELVOIR   FAIR      79  73  82 S5        29.98S
QUANTICO       NOT AVBL
FREDERICKSBRG* FAIR      78  78 100 CALM      29.98S
STAFFORD*      PTSUNNY   76  73  89 CALM      30.03S
WARRENTON      FAIR      78  70  76 CALM      29.98S
CULPEPER*      DRIZZLE   76  75  96 CALM      29.99S
MANASSAS*      PTSUNNY   77  75  94 S5        29.98S
LEESBURG*      PTSUNNY   79  77  94 S8        29.99S
WINCHESTER     CLOUDY    77  70  78 E3        29.99R
FRONT ROYAL*   FAIR      77  70  78 CALM      29.97S
LURAY*         NOT AVBL
$$

VAZ048-049-060>072-079>083-301400-
CENTRAL AND SOUTH CENTRAL VIRGINIA

CITY           SKY/WX    TMP DP  RH WIND       PRES   REMARKS
RICHMOND       PTSUNNY   78  74  87 S6        29.99S
CHESTERFIELD*  CLOUDY    81  64  57 S8        30.00S
PETERSBURG*    FAIR      79  79 100 S3        30.00S
HANOVER        CLOUDY    80  73  79 S3        30.01R
TAPPAHANNOCK*  NOT AVBL
QUINTON*       FAIR      78  75  92 MISG      29.99R
CHARLOTTSVILLE CLOUDY    77  73  87 S5        29.99S
GORDONSVILLE*  CLOUDY    75  74  95 SW3       29.99R
ORANGE*          N/A     75  75 100 CALM      30.01S
LOUISA*        CLOUDY    79  75  89 CALM      30.00R
BUMPASS*       CLOUDY    74  74 100 CALM      30.00R
FARMVILLE*     RAIN     N/A N/A N/A W3        30.00R
CREWE*         NOT AVBL
FORT PICKETT*  CLOUDY    77  76  98 SE5       30.00R
CHASE CITY*    CLOUDY    78  76  94 CALM      29.99S
CLARKSVILLE*   FAIR      79  77  94 SE3       29.98R
SOUTH HILL*    PTSUNNY   77  74  91 CALM      30.04S
LAWRENCEVILLE* PTSUNNY   79  76  90 SE3       29.99S
EMPORIA*       PTSUNNY   79  75  89 E6        30.00S
$$

VAZ088>098-301400-
SOUTHEAST VIRGINIA

CITY           SKY/WX    TMP DP  RH WIND       PRES   REMARKS
NORFOLK        FAIR      84  71  65 E5        29.99R
VIRGINIA BEACH FAIR      88  72  58 E5        29.99R
NORFOLK NAVAL  PTSUNNY   85  71  63 E3        30.01R
WEST POINT*    FAIR      82  76  81 S7        30.01R
SALUDA*        FAIR      82  77  85 S7        29.99S
NEWPORT NEWS   FAIR      84  74  71 SE6       29.99S
LANGLEY AFB    FAIR      85  73  67 VRB5      29.99S
FORT EUSTIS    FAIR      85  76  74 SE7       29.98R
WILLIAMSBURG*  FAIR      84  77  79 SE8       30.00S
HR EXEC AP*    FAIR      82  75  78 SE5       30.02R
FRANKLIN*      FAIR      82  75  78 SE5       29.99S
US460-WAKEFLD  FAIR      82  75  79 S6        29.99R
$$

VAZ020-022-025-037-045-301400-
WEST CENTRAL AND SOUTHWEST VIRGINIA

CITY           SKY/WX    TMP DP  RH WIND       PRES   REMARKS
STAUNTON*      FAIR      76  71  82 S3        30.03S
WAYNESBORO*    PTSUNNY   77  70  78 CALM      30.03S
HOT SPRINGS VA FAIR      70  68  94 W8        30.13S
LYNCHBURG      CLOUDY    75  73  93 NE5       30.03R
DANVILLE       FAIR      80  73  79 CALM      29.99R
SOUTH BOSTON*  CLOUDY   N/A N/A N/A CALM      29.99S
MARTINSVILLE   FAIR      77  70  78 CALM      30.04R
ROANOKE        FAIR      75  71  87 NW3       30.05R
BLACKSBURG     CLOUDY    69  69  99 CALM      30.12R FOG
DUBLIN*        CLOUDY    70  70 100 CALM      30.10R
MARION*        CLOUDY    69  68  96 W6        30.13R
HILLSVILLE*    FAIR      71  67  87 NW3       30.10S
RICHLANDS*     FOG       66  66 100 CALM      30.11R VSB 1/2
WISE*          RAIN      68  68 100 SW3       30.11F
ABINGDON*      CLOUDY    70  70 100 CALM      30.10R
$$

MDZ021>025-VAZ099-100-301400-
SOUTHERN MARYLAND AND THE DELMARVA PENINSULA

CITY           SKY/WX    TMP DP  RH WIND       PRES   REMARKS
PATUXENT RIVER PTSUNNY   83  71  67 S5        29.99R
BAY BRIDGE APT LGT RAIN  82  79  89 SE6       29.98S
LEONARDTOWN      N/A     79  72  78 MISG        N/A
DOVER          CLOUDY    79  79  99 S5        29.98S
GEORGETOWN     CLOUDY    80  75  84 S6        30.01R
EASTON         SUNNY     82  81  94 S8        30.03S HX  95
CAMBRIDGE      MOSUNNY   79  73  83 S3        29.99S
SALISBURY      NOT AVBL
OCEAN CITY     SUNNY     81  75  82 S3        30.01R
WALLOPS ISLAND FAIR      81  75  82 SE6       30.01R
ACCOMACK*      FAIR      81  73  78 CALM      30.00R
$$

NCZ012>017-030>032-301400-
NORTH CENTRAL AND EASTERN NORTH CAROLINA

CITY           SKY/WX    TMP DP  RH WIND       PRES   REMARKS
ROANOKE RAPIDS FAIR      79  73  83 SE3       29.98S
RALEIGH        CLOUDY    80  73  79 S6        29.99R
ELIZABETH CITY SUNNY     84  74  71 E7        29.99R
AHOSKIE*       CLOUDY    80  76  89 CALM      29.99S
EDENTON*       SUNNY     87  74  64 SE3       29.99F HX  95
CURRITUCK*     SUNNY     83  75  78 CALM      30.00R
KILL DEVIL HLS SUNNY     85  82  90 CALM      29.98S HX 100
MANTEO         SUNNY     83  76  79 E5        30.00R
CAPE HATTERAS  SUNNY     85  79  82 SE8       29.98S HX  98
TARBORO*       FAIR      84  77  78 SE5       29.99R
GOLDSBORO      MOSUNNY   84  79  83 S5        29.97R HX  96
WASHINGTON     SUNNY     84  78  80 SE6       29.98S HX  95
GREENVILLE     MOSUNNY   86  77  74 S6        30.00S HX  97
NEW BERN       CLOUDY    85  77  77 SE3       29.99S HX  95
WILMINGTON     PTSUNNY   85  79  82 W8        29.99R HX  98
$$

VAZ048-301400-
ELSEWHERE

CITY           SKY/WX    TMP DP  RH WIND       PRES   REMARKS
HARRISBURG PA  CLOUDY    78  73  84 SE3       29.98R
BALTIMORE      CLOUDY    78  74  87 CALM      29.98S
ANNAPOLIS      CLOUDY   N/A N/A N/A CALM      29.98R
ANDREWS AFB    FAIR      79  73  81 S6        29.98S
PHILADELPHIA   PTSUNNY   79  73  82 S6        30.00S
GREENSBORO     PTSUNNY   81  71  71 VRB3      30.00R
ROCKY MOUNT    CLOUDY    83  77  82 S5        29.98S
$$

VAZ100-301400-
MARINE

STATION/POSITION TIME  TEMP    WIND        PRES    WAVE   SWELL
                       AIR SEA DIR/SP/G            HT/PER HT/PER
                 (UTC) (F)     (DEG/KT/KT) (MB)    (FT/S) (FT/S)
BRANDYWINE LGT   1200   74     190/  9/  9   N/A
CAPE MAY NJ      1200   77 73  180/  4/  5 1015.4R
LEWES DE         1200   78 74  170/  3/  4 1015.7R
OCEAN-CITY-INLET 1200   77 74  170/  3/  5 1016.3R
WACHAPREAGUE VA  1200   81 83  170/  3/  5 1015.7R
THOMAS POINT MD  1300   82 84  180/ 11/ 12 1016.5S
GOOSES REEF MD   1200   84 84  180/  8/ 12 1016.3R   1
COVE POINT MD    1200   81     170/ 11/ 12 1015.9R
SOLOMONS ISLAND  1200   81 85  150/  5/  7   N/A
BISHOPS HEAD MD  1200   81     190/  7/  8 1015.8R
PINEY POINT MD   1200          190/  8/ 10   N/A
POTOMAC MD       1200   82 84  220/  6/  8 1014.4R   0
CAMBRIDGE MD     1200   79 87  180/  3/  6 1014.6R
LEWISETTA VA     1200   80 85  190/  5/  6 1015.0R
RAPPAHANNOCK LGT 1200          160/  8/  9 1016.1R
STINGRAY PT      1200   83 86  110/  8/ 10 1015.8R
YORK RVR RNG VA  1200   82     150/  6/  7 1014.9R
YORKTOWN VA      1200   81 85  160/  5/  6 1014.9R
JAMESTOWN VA     1200   81 88  150/  4/  6   N/A
DOMINION TERM VA 1200   81     130/  4/  5 1015.5R
KIPTOPEKE VA     1200      80  140/  3/  4   N/A
CHES BAY BRIDGE  1200   81 74  120/  2/  5 1015.4R
CAPE HENRY VA    1200   79      90/  4/  5   N/A
WILLOUBY STN VA  1200   82     140/  4/  5   N/A
CAPE HENRY BUOY  1212      80                N/A     2/ 7
1ST LANDING BUOY 1200   80 81  120/  6/  6 1015.3R   1/ 4
CAPE CHARLES BUO 1226      76                N/A     2/ 6
OFFSHORE WE BUOY 1221      82                N/A     3/ 7
64NM E OF VA BCH 1250   81 83   80/  4/  6 1015.6R   3/ 7   3/ 7
DUCK PIER NC     1200   81 75   90/  2/  2 1014.8R
44100 DUCK FRF   1205      82                N/A     2/ 7
44056 DUCK FRF   1211      80                N/A     1/13
OREGON INLET NC  1200   80 79   40/  5/  5 1015.3R
HATTERAS NC      1200   83 83  110/  5/  8 1014.8R
DIAMOND SHLS NC  1250   85 86   80/  4/  4 1015.3R   2/ 6   2/ 6
CAPE LOOKOUT NC  1200   82     140/  2/  2 1014.8R
$$




USA.gov is the U.S. government's official web portal to all federal, state and local government web resources and services.